Date String (YYYY-MM-DD hh:mm:ss) UTC,Instrument flags,absolute air pressure of the measurement (hPa),sample flow rate (lpm),inlet stack bypass flow (lpm),air temperature of the measurement (°C),ambient temperature measured by the external sensor (°C),aerosol sample conditioner tube jacket temperature (°C),OPC LED temperature (°C),internal box temperature (°C),relative humidity of the measurement (%),span deviation,mass concentration of particles derived from Lorenz-Mie calculation of OPC scattering (μg/m³),mass concentration of particles derived from Lorenz-Mie calculation of OPC scattering (μg/m³),mass concentration of particles derived from Lorenz-Mie calculation of OPC scattering (μg/m³)
DateTimeUTC,F1_M11,P_M11,Q1_M11,Q2_M11,T1_M11,T2_M11,T3_M11,T4_M11,T5_M11,U1_M11,ZSPAN_M11,X2_M11,X0_M11,X1_M11
2024-06-08 20:00:00,SystemResetWarning,0827.8,5.00,000.00,028.6,026.0,000.0,037.4,029.7,028.9,0000.0,0005.23,0014.60,0004.01
2024-06-08 20:01:00,SystemResetWarning,0828.0,5.00,000.00,028.6,026.5,000.0,037.3,029.9,029.0,0000.0,0005.23,0013.91,0004.02
2024-06-08 20:02:00,SystemResetWarning,0828.1,4.99,000.00,028.7,027.0,000.0,037.2,030.2,029.4,0000.0,0005.18,0013.86,0004.01
2024-06-08 20:03:00,SystemResetWarning,0828.1,5.01,000.00,028.7,027.4,000.0,037.2,030.4,029.4,0000.0,0005.13,0014.84,0004.01
2024-06-08 20:04:00,SystemResetWarning,0828.1,5.00,000.00,028.8,027.7,000.0,037.2,030.5,029.7,0000.0,0005.10,0014.84,0004.01
2024-06-08 20:05:00,SystemResetWarning,0828.1,4.99,000.00,028.9,028.1,000.0,037.2,030.7,028.6,0000.0,0005.07,0015.79,0003.99
2024-06-08 20:06:00,SystemResetWarning,0828.1,5.00,000.00,029.0,028.3,000.0,037.2,030.8,029.0,0000.0,0005.00,0015.39,0003.96
2024-06-08 20:07:00,SystemResetWarning,0828.1,5.00,000.00,029.1,028.5,000.0,037.2,030.9,029.9,0000.0,0004.99,0016.34,0003.95
2024-06-08 20:08:00,SystemResetWarning,0828.1,5.01,000.00,029.2,028.7,000.0,037.2,031.1,030.6,0000.0,0005.02,0016.76,0003.94
2024-06-08 20:09:00,SystemResetWarning,0828.1,5.01,000.00,029.3,028.9,000.0,037.3,031.1,031.0,0000.0,0004.98,0017.71,0003.94
2024-06-08 20:10:00,SystemResetWarning,0828.0,5.00,000.00,029.3,029.0,000.0,037.3,031.2,030.0,0000.0,0005.06,0019.07,0003.94
2024-06-08 20:11:00,SystemResetWarning,0828.0,5.00,000.00,029.4,029.1,000.0,037.4,031.3,028.4,0000.0,0005.08,0019.52,0003.95
2024-06-08 20:12:00,SystemResetWarning,0827.9,4.98,000.00,029.4,027.9,000.0,037.5,030.7,028.7,0000.0,0005.06,0019.28,0003.95
2024-06-08 20:13:00,SystemResetWarning,0827.9,5.02,000.00,029.1,026.5,000.0,037.5,030.1,028.9,0000.0,0005.09,0019.36,0003.96
2024-06-08 20:14:00,SystemResetWarning,0828.1,5.00,000.00,028.9,026.7,000.0,037.5,030.1,031.3,0000.0,0005.12,0018.11,0003.96
2024-06-08 20:15:00,SystemResetWarning,0828.3,4.99,000.00,028.9,027.0,000.0,037.4,030.3,032.2,0000.0,0005.16,0019.03,0003.97
2024-06-08 20:16:00,SystemResetWarning,0828.4,5.00,000.00,029.0,027.4,000.0,037.4,030.5,031.5,0000.0,0005.25,0019.02,0003.99
2024-06-08 20:17:00,SystemResetWarning,0828.4,5.00,000.00,029.0,027.8,000.0,037.3,030.7,031.8,0000.0,0005.36,0019.01,0004.02
2024-06-08 20:18:00,SystemResetWarning,0828.5,5.00,000.00,029.1,028.1,000.0,037.3,030.8,031.7,0000.0,0005.40,0018.41,0004.04
2024-06-08 20:19:00,SystemResetWarning,0828.6,4.99,000.00,029.2,028.4,000.0,037.4,030.9,031.0,0000.0,0005.38,0017.69,0004.05
2024-06-08 20:20:00,SystemResetWarning,0828.6,5.00,000.00,029.2,028.6,000.0,037.4,031.1,033.0,0000.0,0005.44,0017.19,0004.06
2024-06-08 20:21:00,SystemResetWarning,0828.5,5.00,000.00,029.3,028.8,000.0,037.4,031.2,032.9,0000.0,0005.41,0016.86,0004.07
2024-06-08 20:22:00,SystemResetWarning,0828.5,5.00,000.00,029.4,028.9,000.0,037.4,031.3,033.3,0000.0,0005.45,0016.76,0004.07
2024-06-08 20:23:00,SystemResetWarning,0828.4,5.00,000.00,029.5,029.1,000.0,037.5,031.3,033.5,0000.0,0005.54,0018.45,0004.09
2024-06-08 20:24:00,SystemResetWarning,0828.4,4.98,000.00,029.5,028.3,000.0,037.6,031.0,034.8,0000.0,0005.67,0020.11,0004.10
2024-06-08 20:25:00,SystemResetWarning,0828.2,5.01,000.00,029.2,026.5,000.0,037.6,030.1,036.0,0000.0,0005.81,0020.64,0004.13
2024-06-08 20:26:00,SystemResetWarning,0828.1,5.01,000.00,028.9,026.4,000.0,037.6,029.9,037.1,0000.0,0005.92,0020.59,0004.17
2024-06-08 20:27:00,SystemResetWarning,0828.1,4.99,000.00,028.9,026.7,000.0,037.5,030.1,036.6,0000.0,0005.93,0021.13,0004.20
2024-06-08 20:28:00,SystemResetWarning,0827.8,5.01,000.00,028.9,027.2,000.0,037.4,030.4,037.0,0000.0,0005.93,0020.47,0004.23
2024-06-08 20:29:00,SystemResetWarning,0827.7,5.00,000.00,029.0,027.6,000.0,037.4,030.6,036.5,0000.0,0006.04,0020.65,0004.26
2024-06-08 20:30:00,SystemResetWarning,0827.4,5.00,000.00,029.0,027.9,000.0,037.4,030.8,035.8,0000.0,0006.16,0021.37,0004.30
2024-06-08 20:31:00,SystemResetWarning,0827.1,5.00,000.00,029.1,028.2,000.0,037.4,030.9,036.3,0000.0,0006.25,0021.93,0004.35
2024-06-08 20:32:00,SystemResetWarning,0827.2,5.00,000.00,029.2,028.4,000.0,037.4,031.0,037.0,0000.0,0006.33,0021.16,0004.38
2024-06-08 20:33:00,SystemResetWarning,0827.2,5.00,000.00,029.3,028.7,000.0,037.4,031.2,036.2,0000.0,0006.41,0021.24,0004.42
2024-06-08 20:34:00,SystemResetWarning,0827.4,5.01,000.00,029.3,028.8,000.0,037.5,031.2,035.5,0000.0,0006.43,0020.14,0004.44
2024-06-08 20:35:00,SystemResetWarning,0827.6,5.00,000.00,029.4,029.0,000.0,037.5,031.3,036.5,0000.0,0006.38,0018.36,0004.47
2024-06-08 20:36:00,SystemResetWarning,0827.7,4.99,000.00,029.5,029.1,000.0,037.5,031.4,036.8,0000.0,0006.40,0018.71,0004.49
2024-06-08 20:37:00,SystemResetWarning,0827.7,4.99,000.00,029.5,028.0,000.0,037.6,030.8,036.1,0000.0,0006.45,0018.90,0004.50
2024-06-08 20:38:00,SystemResetWarning,0827.8,5.00,000.00,029.1,025.9,000.0,037.7,029.8,037.1,0000.0,0006.49,0018.08,0004.51
2024-06-08 20:39:00,SystemResetWarning,0827.8,5.01,000.00,028.7,025.4,000.0,037.6,029.5,037.8,0000.0,0006.55,0018.31,0004.52
2024-06-08 20:40:00,SystemResetWarning,0827.8,5.01,000.00,028.6,025.7,000.0,037.5,029.6,038.7,0000.0,0006.60,0018.42,0004.55
2024-06-08 20:41:00,SystemResetWarning,0827.8,4.99,000.00,028.6,026.2,000.0,037.4,029.9,037.9,0000.0,0006.56,0017.86,0004.55
2024-06-08 20:42:00,SystemResetWarning,0827.8,4.99,000.00,028.6,026.7,000.0,037.3,030.1,037.7,0000.0,0006.55,0018.19,0004.55
2024-06-08 20:43:00,SystemResetWarning,0827.8,5.00,000.00,028.7,027.2,000.0,037.3,030.4,037.3,0000.0,0006.53,0018.70,0004.56
2024-06-08 20:44:00,SystemResetWarning,0827.8,5.01,000.00,028.8,027.6,000.0,037.3,030.5,037.8,0000.0,0006.52,0019.96,0004.55
2024-06-08 20:45:00,SystemResetWarning,0827.7,5.00,000.00,028.9,027.9,000.0,037.3,030.7,038.0,0000.0,0006.51,0019.70,0004.54
2024-06-08 20:46:00,SystemResetWarning,0827.7,4.99,000.00,028.9,028.2,000.0,037.3,030.8,038.4,0000.0,0006.52,0020.23,0004.56
2024-06-08 20:47:00,SystemResetWarning,0827.6,5.00,000.00,029.0,028.4,000.0,037.3,030.9,036.9,0000.0,0006.53,0020.29,0004.56
2024-06-08 20:48:00,SystemResetWarning,0827.6,5.00,000.00,029.1,028.6,000.0,037.3,031.0,036.0,0000.0,0006.46,0020.36,0004.55
2024-06-08 20:49:00,SystemResetWarning,0827.5,5.00,000.00,029.2,028.8,000.0,037.3,031.1,035.0,0000.0,0006.40,0020.95,0004.54
2024-06-08 20:50:00,SystemResetWarning,0827.6,5.01,000.00,029.3,028.9,000.0,037.4,031.2,035.9,0000.0,0006.30,0020.43,0004.50
2024-06-08 20:51:00,SystemResetWarning,0827.7,5.00,000.00,029.4,029.1,000.0,037.4,031.3,035.2,0000.0,0006.24,0020.52,0004.47
2024-06-08 20:52:00,SystemResetWarning,0827.8,5.00,000.00,029.5,029.2,000.0,037.5,031.4,035.9,0000.0,0006.18,0020.61,0004.45
2024-06-08 20:53:00,SystemResetWarning,0827.8,4.97,000.00,029.4,028.1,000.0,037.5,030.8,036.7,0000.0,0006.15,0020.36,0004.42
2024-06-08 20:54:00,SystemResetWarning,0827.7,5.01,000.00,029.1,026.5,000.0,037.6,030.1,038.1,0000.0,0006.08,0020.33,0004.41
2024-06-08 20:55:00,SystemResetWarning,0827.7,5.01,000.00,028.9,026.5,000.0,037.6,030.1,039.6,0000.0,0006.04,0019.31,0004.41
2024-06-08 20:56:00,SystemResetWarning,0827.7,5.00,000.00,028.9,026.9,000.0,037.5,030.3,038.8,0000.0,0006.05,0019.27,0004.42
2024-06-08 20:57:00,SystemResetWarning,0827.8,4.99,000.00,028.9,027.3,000.0,037.4,030.5,038.1,0000.0,0006.06,0018.75,0004.41
2024-06-08 20:58:00,SystemResetWarning,0827.8,5.00,000.00,029.0,027.6,000.0,037.4,030.7,038.9,0000.0,0006.02,0018.02,0004.39
2024-06-08 20:59:00,SystemResetWarning,0828.0,5.01,000.00,029.1,028.0,000.0,037.4,030.8,038.4,0000.0,0005.93,0017.40,0004.39
